Погода в Кашино

Россия / Свердловская область     56°32′19″N   60°52′05″E
темп.,
°C
ветер,
м/с
пор.,
м/с
влажн.,
%
обл.,
%
осадки,
мм/ч
давл.,
гПа
погр.,
м
2 декабря, чт
чт223:00+2ю61587100 1.7 994828
02:00+2ю41187100 0.0 994406
05:00+1ююв41091100 0.0 993328
08:00+1ю2994100 0.1 993296
11:00+2зюз41096100 0.2 994979
14:00+1з5107798 0.1 9971081
17:00−2з5127620 0.1 1000830
20:00−4з5127393 0.0 10021026
3 декабря, пт
пт323:00−4зюз51275100 0.0 10041033
02:00−3юз4107786 0.0 10041024
05:00−4юз41087100 0.1 1004797
08:00−4зюз61373100 0.3 10051039
11:00−4зюз51273100 0.3 10071054
14:00−4зюз51371100 0.0 10081143
17:00−4зюз51276100 0.0 10091051
20:00−4зюз5137989 0.0 1011893
4 декабря, сб
сб423:00−3з5148247 0.0 1013791
02:00−3з310866 0.0 1015398
05:00−4ююз269557 0.0 1017134
08:00−2ю3797100 0.1 1018218
11:000ююз31298100 0.2 1018581
14:00+2юз51394100 0.0 1016845
17:00+2юз51688100 0.0 1016821
20:00+2юз61775100 0.0 1014792
5 декабря, вс
вс523:00+2юз61873100 0.0 1013827
02:00+2юз61674100 0.0 1012957
05:00+2юз51381100 0.0 1012917
08:00+1юз41187100 0.0 1011795
11:000юз31097100 0.4 1010604
14:00+1зюз4986100 0.3 1009816
17:00−1з499078 0.3 1011532
20:00−4з4108486 0.0 1014753
6 декабря, пн
пн623:00−4з497732 0.0 1015823
02:00−5з4107654 0.0 1016947
05:00−6зсз41182100 0.0 10171184
08:00−11зсз4107494 0.0 1020769
11:00−12сз4770100 0.0 1023836
14:00−12сз4765100 0.0 1025760
17:00−12сз497618 0.0 1027572
20:00−13зсз498156 0.0 1029492